| time (UTC) | temp F | wind direction | speed MPH | gust MPH | rain 1hr in | rain 24hr in | rain mn in | humidity % | barometer mb |
| 20260902125405 | 53 | 0 | 0.0 | 0.0 | 0.00 | 0.00 | 0.00 | 69 | 1011.7 |
| 20260902124504 | 54 | 0 | 0.0 | 0.0 | 0.00 | 0.00 | 0.00 | 68 | 1011.7 |
| 20260902123605 | 54 | 0 | 0.0 | 0.0 | 0.00 | 0.00 | 0.00 | 68 | 1011.8 |
| 20260902122703 | 54 | 0 | 0.0 | 0.0 | 0.00 | 0.00 | 0.00 | 68 | 1011.9 |
| 20260902122019 | 54 | 0 | 0.0 | 0.0 | 0.00 | 0.00 | 0.00 | 68 | 1012.0 |
| 20260902120908 | 55 | 0 | 0.0 | 0.0 | 0.00 | 0.00 | 0.00 | 67 | 1012.2 |
| 20260902120004 | 55 | 0 | 0.0 | 0.0 | 0.00 | 0.00 | 0.00 | 67 | 1012.3 |
| 20260902115403 | 55 | 0 | 0.0 | 0.0 | 0.00 | 0.00 | 0.00 | 66 | 1012.3 |
| 20260902114508 | 55 | 0 | 0.0 | 0.0 | 0.00 | 0.00 | 0.00 | 65 | 1012.3 |
| 20260902113608 | 55 | 0 | 0.0 | 0.0 | 0.00 | 0.00 | 0.00 | 64 | 1012.2 |
| 20260902112703 | 55 | 0 | 0.0 | 0.0 | 0.00 | 0.00 | 0.00 | 65 | 1012.2 |
| 20260902111803 | 56 | 0 | 0.0 | 0.0 | 0.00 | 0.00 | 0.00 | 65 | 1012.4 |
| 20260902111118 | 56 | 0 | 0.0 | 0.0 | 0.00 | 0.00 | 0.00 | 65 | 1012.3 |
| 20260902110008 | 56 | 0 | 0.0 | 0.0 | 0.00 | 0.00 | 0.00 | 65 | 1012.3 |
| 20260902105408 | 56 | 0 | 0.0 | 0.0 | 0.00 | 0.00 | 0.00 | 65 | 1012.4 |
| 20260902104508 | 57 | 0 | 0.0 | 0.0 | 0.00 | 0.00 | 0.00 | 64 | 1012.1 |
| 20260902103603 | 57 | 0 | 0.0 | 0.0 | 0.00 | 0.00 | 0.00 | 64 | 1012.0 |
| 20260902102713 | 57 | 0 | 0.0 | 0.0 | 0.00 | 0.00 | 0.00 | 63 | 1012.2 |
| 20260902101804 | 58 | 0 | 0.0 | 0.0 | 0.00 | 0.00 | 0.00 | 64 | 1012.0 |
| 20260902100908 | 58 | 0 | 0.0 | 0.0 | 0.00 | 0.00 | 0.00 | 63 | 1012.0 |
| 20260902100008 | 58 | 0 | 0.0 | 0.0 | 0.00 | 0.00 | 0.00 | 64 | 1011.9 |
| 20260902095619 | 58 | 0 | 0.0 | 0.0 | 0.00 | 0.00 | 0.00 | 64 | 1011.8 |
| 20260902094504 | 58 | 0 | 0.0 | 0.0 | 0.00 | 0.00 | 0.00 | 64 | 1011.7 |
| 20260902093603 | 59 | 0 | 0.0 | 0.0 | 0.00 | 0.00 | 0.00 | 64 | 1011.7 |
| 20260902092919 | 59 | 0 | 0.0 | 0.0 | 0.00 | 0.00 | 0.00 | 64 | 1011.6 |
| 20260902091808 | 59 | 0 | 0.0 | 0.0 | 0.00 | 0.00 | 0.00 | 65 | 1011.4 |
| 20260902090903 | 59 | 0 | 0.0 | 0.0 | 0.00 | 0.00 | 0.00 | 65 | 1011.5 |
| 20260902090215 | 59 | 0 | 0.0 | 0.0 | 0.00 | 0.00 | 0.00 | 65 | 1011.4 |
| 20260902085408 | 59 | 0 | 0.0 | 0.0 | 0.00 | 0.00 | 0.00 | 65 | 1011.4 |
| 20260902084503 | 60 | 0 | 0.0 | 0.0 | 0.00 | 0.00 | 0.00 | 64 | 1011.4 |
| 20260902083608 | 60 | 0 | 0.0 | 0.0 | 0.00 | 0.00 | 0.00 | 63 | 1011.2 |
| 20260902082922 | 60 | 0 | 0.0 | 0.0 | 0.00 | 0.00 | 0.00 | 62 | 1011.2 |
| 20260902081803 | 60 | 0 | 0.0 | 0.0 | 0.00 | 0.00 | 0.00 | 62 | 1011.2 |
| 20260902080903 | 61 | 0 | 0.0 | 0.0 | 0.00 | 0.00 | 0.00 | 61 | 1011.1 |
| 20260902080008 | 61 | 0 | 0.0 | 0.0 | 0.00 | 0.00 | 0.00 | 61 | 1011.1 |
| 20260902075408 | 62 | 0 | 0.0 | 0.0 | 0.00 | 0.00 | 0.00 | 60 | 1011.0 |
| 20260902074503 | 62 | 0 | 0.0 | 0.0 | 0.00 | 0.00 | 0.00 | 60 | 1011.1 |
| 20260902073603 | 62 | 0 | 0.0 | 0.0 | 0.00 | 0.00 | 0.00 | 60 | 1010.9 |
| 20260902072703 | 62 | 0 | 0.0 | 0.0 | 0.00 | 0.00 | 0.00 | 58 | 1011.0 |
| 20260902071808 | 63 | 0 | 0.0 | 0.0 | 0.00 | 0.00 | 0.00 | 58 | 1011.0 |
| 20260902071123 | 63 | 0 | 0.0 | 0.0 | 0.00 | 0.00 | 0.00 | 58 | 1010.9 |
| 20260902070008 | 63 | 0 | 0.0 | 0.0 | 0.00 | 0.00 | 0.00 | 57 | 1011.1 |
| 20260902065403 | 63 | 0 | 0.0 | 0.0 | 0.00 | 0.00 | 0.00 | 57 | 1011.0 |
| 20260902064719 | 64 | 0 | 0.0 | 0.0 | 0.00 | 0.00 | 0.00 | 57 | 1011.0 |
| 20260902063604 | 64 | 0 | 0.0 | 0.0 | 0.00 | 0.00 | 0.00 | 57 | 1011.2 |
| 20260902062703 | 64 | 0 | 0.0 | 0.0 | 0.00 | 0.00 | 0.00 | 57 | 1011.4 |
| 20260902061808 | 64 | 0 | 0.0 | 0.0 | 0.00 | 0.00 | 0.00 | 56 | 1011.4 |
| 20260902061118 | 65 | 0 | 0.0 | 0.0 | 0.00 | 0.00 | 0.00 | 56 | 1011.5 |
| 20260902060004 | 65 | 0 | 0.0 | 0.0 | 0.00 | 0.00 | 0.00 | 56 | 1011.5 |
| 20260902055408 | 65 | 0 | 0.0 | 0.0 | 0.00 | 0.00 | 0.00 | 56 | 1011.5 |
| 20260902054714 | 66 | 0 | 0.0 | 0.0 | 0.00 | 0.00 | 0.00 | 56 | 1011.5 |
| 20260902053605 | 65 | 0 | 0.0 | 0.0 | 0.00 | 0.00 | 0.00 | 57 | 1011.6 |
| 20260902052703 | 65 | 0 | 0.0 | 0.0 | 0.00 | 0.00 | 0.00 | 57 | 1011.7 |
| 20260902051803 | 65 | 0 | 0.0 | 0.0 | 0.00 | 0.00 | 0.00 | 57 | 1011.7 |
| 20260902050904 | 65 | 0 | 0.0 | 0.0 | 0.00 | 0.00 | 0.00 | 56 | 1011.9 |
| 20260902050009 | 66 | 0 | 0.0 | 0.0 | 0.00 | 0.00 | 0.00 | 55 | 1011.8 |
| 20260902045404 | 66 | 0 | 0.0 | 0.0 | 0.00 | 0.00 | 0.00 | 55 | 1011.9 |
| 20260902044503 | 67 | 0 | 0.0 | 0.0 | 0.00 | 0.00 | 0.00 | 54 | 1011.9 |
| 20260902043605 | 67 | 0 | 0.0 | 0.0 | 0.00 | 0.00 | 0.00 | 54 | 1011.9 |
| 20260902042705 | 68 | 0 | 0.0 | 0.0 | 0.00 | 0.00 | 0.00 | 53 | 1011.9 |
| 20260902041803 | 68 | 0 | 0.0 | 0.0 | 0.00 | 0.00 | 0.00 | 53 | 1012.0 |
| 20260902040911 | 68 | 0 | 0.0 | 0.0 | 0.00 | 0.00 | 0.00 | 53 | 1011.9 |
| 20260902040003 | 69 | 0 | 0.0 | 0.0 | 0.00 | 0.00 | 0.00 | 53 | 1011.9 |
| 20260902035405 | 69 | 0 | 0.0 | 0.0 | 0.00 | 0.00 | 0.00 | 52 | 1012.0 |
| 20260902034513 | 68 | 0 | 0.0 | 0.0 | 0.00 | 0.00 | 0.00 | 54 | 1012.2 |
| 20260902033823 | 68 | 0 | 0.0 | 0.0 | 0.00 | 0.00 | 0.00 | 55 | 1012.2 |
| 20260902032703 | 67 | 0 | 0.0 | 0.0 | 0.00 | 0.00 | 0.00 | 55 | 1012.2 |
| 20260902031808 | 66 | 0 | 0.0 | 0.0 | 0.00 | 0.00 | 0.00 | 58 | 1012.5 |
| 20260902030903 | 64 | 0 | 0.0 | 0.0 | 0.00 | 0.00 | 0.00 | 60 | 1012.7 |
| 20260902030008 | 64 | 0 | 0.0 | 0.0 | 0.00 | 0.00 | 0.00 | 60 | 1012.8 |
| 20260902025408 | 63 | 0 | 0.0 | 0.0 | 0.00 | 0.00 | 0.00 | 60 | 1012.9 |
| 20260902024503 | 63 | 0 | 0.0 | 0.0 | 0.00 | 0.00 | 0.00 | 60 | 1013.3 |
| 20260902023603 | 63 | 0 | 0.0 | 0.0 | 0.00 | 0.00 | 0.00 | 60 | 1013.6 |
| 20260902022703 | 64 | 0 | 0.0 | 0.0 | 0.00 | 0.00 | 0.00 | 59 | 1013.7 |
| 20260902021805 | 64 | 0 | 0.0 | 0.0 | 0.00 | 0.00 | 0.00 | 59 | 1014.0 |
| 20260902021119 | 64 | 0 | 0.0 | 0.0 | 0.00 | 0.00 | 0.00 | 58 | 1014.0 |
| 20260902020214 | 64 | 0 | 0.0 | 0.0 | 0.00 | 0.00 | 0.00 | 58 | 1014.2 |
| 20260902015403 | 63 | 0 | 0.0 | 0.0 | 0.00 | 0.00 | 0.00 | 60 | 1014.2 |
| 20260902014508 | 62 | 0 | 0.0 | 0.0 | 0.00 | 0.00 | 0.00 | 64 | 1014.3 |
| 20260902013603 | 61 | 0 | 0.0 | 0.0 | 0.00 | 0.00 | 0.00 | 64 | 1014.5 |
| 20260902012703 | 60 | 0 | 0.0 | 0.0 | 0.00 | 0.00 | 0.00 | 63 | 1014.6 |
| 20260902011808 | 60 | 0 | 0.0 | 0.0 | 0.00 | 0.00 | 0.00 | 64 | 1014.9 |
| 20260902010909 | 60 | 0 | 0.0 | 0.0 | 0.00 | 0.00 | 0.00 | 65 | 1014.9 |
| 20260902010008 | 60 | 0 | 0.0 | 0.0 | 0.00 | 0.00 | 0.00 | 64 | 1014.9 |
| 20260902005619 | 60 | 0 | 0.0 | 0.0 | 0.00 | 0.00 | 0.00 | 63 | 1015.0 |
| 20260902004503 | 60 | 0 | 0.0 | 0.0 | 0.00 | 0.00 | 0.00 | 65 | 1015.2 |
| 20260902003814 | 59 | 0 | 0.0 | 0.0 | 0.00 | 0.00 | 0.00 | 65 | 1015.2 |
| 20260902002913 | 59 | 0 | 0.0 | 0.0 | 0.00 | 0.00 | 0.00 | 67 | 1015.3 |
| 20260902001815 | 58 | 0 | 0.0 | 0.0 | 0.00 | 0.00 | 0.00 | 67 | 1015.3 |
| 20260902000908 | 58 | 0 | 0.0 | 0.0 | 0.00 | 0.00 | 0.00 | 67 | 1015.5 |
| 20260902000008 | 58 | 0 | 0.0 | 0.0 | 0.00 | 0.00 | 0.00 | 68 | 1015.5 |
| 20260901235403 | 58 | 0 | 0.0 | 0.0 | 0.00 | 0.00 | 0.00 | 67 | 1015.5 |
| 20260901234503 | 58 | 0 | 0.0 | 0.0 | 0.00 | 0.00 | 0.00 | 68 | 1015.6 |
| 20260901233608 | 57 | 0 | 0.0 | 0.0 | 0.00 | 0.00 | 0.00 | 69 | 1015.5 |
| 20260901232913 | 57 | 0 | 0.0 | 0.0 | 0.00 | 0.00 | 0.00 | 70 | 1015.6 |
| 20260901232018 | 57 | 0 | 0.0 | 0.0 | 0.00 | 0.00 | 0.00 | 70 | 1015.6 |
| 20260901230908 | 57 | 0 | 0.0 | 0.0 | 0.00 | 0.00 | 0.00 | 71 | 1015.6 |
| 20260901230013 | 56 | 0 | 0.0 | 0.0 | 0.00 | 0.00 | 0.00 | 71 | 1015.5 |
| 20260901225408 | 56 | 0 | 0.0 | 0.0 | 0.00 | 0.00 | 0.00 | 72 | 1015.6 |
| 20260901224504 | 56 | 0 | 0.0 | 0.0 | 0.00 | 0.00 | 0.00 | 72 | 1015.6 |
| 20260901223813 | 56 | 0 | 0.0 | 0.0 | 0.00 | 0.00 | 0.00 | 72 | 1015.6 |
| 20260901222914 | 56 | 0 | 0.0 | 0.0 | 0.00 | 0.00 | 0.00 | 73 | 1015.7 |
| 20260901221804 | 56 | 0 | 0.0 | 0.0 | 0.00 | 0.00 | 0.00 | 74 | 1015.6 |
| 20260901220903 | 56 | 0 | 0.0 | 0.0 | 0.00 | 0.00 | 0.00 | 76 | 1015.5 |
| 20260901220003 | 56 | 0 | 0.0 | 0.0 | 0.00 | 0.00 | 0.00 | 77 | 1015.3 |
| 20260901215404 | 56 | 0 | 0.0 | 0.0 | 0.00 | 0.00 | 0.00 | 77 | 1015.1 |
| 20260901214503 | 56 | 0 | 0.0 | 0.0 | 0.00 | 0.00 | 0.00 | 77 | 1015.0 |
| 20260901213603 | 56 | 0 | 0.0 | 0.0 | 0.00 | 0.00 | 0.00 | 77 | 1014.8 |
| 20260901212703 | 56 | 0 | 0.0 | 0.0 | 0.00 | 0.00 | 0.00 | 77 | 1014.7 |
| 20260901211805 | 56 | 0 | 0.0 | 0.0 | 0.00 | 0.00 | 0.00 | 77 | 1014.7 |
| 20260901210905 | 56 | 0 | 0.0 | 0.0 | 0.00 | 0.00 | 0.00 | 77 | 1014.6 |
| 20260901210008 | 56 | 0 | 0.0 | 0.0 | 0.00 | 0.01 | 0.00 | 78 | 1014.5 |
| 20260901205405 | 56 | 0 | 0.0 | 0.0 | 0.00 | 0.01 | 0.00 | 78 | 1014.4 |
| 20260901204508 | 56 | 0 | 0.0 | 0.0 | 0.00 | 0.01 | 0.00 | 78 | 1014.3 |
| 20260901203605 | 56 | 0 | 0.0 | 0.0 | 0.00 | 0.01 | 0.00 | 78 | 1014.1 |
| 20260901202703 | 56 | 0 | 0.0 | 0.0 | 0.00 | 0.01 | 0.00 | 77 | 1014.1 |
| 20260901201803 | 56 | 0 | 0.0 | 0.0 | 0.00 | 0.01 | 0.00 | 77 | 1014.0 |
| 20260901200905 | 56 | 0 | 0.0 | 0.0 | 0.00 | 0.01 | 0.00 | 77 | 1013.9 |
| 20260901200004 | 57 | 0 | 0.0 | 0.0 | 0.00 | 0.01 | 0.00 | 77 | 1013.8 |
| 20260901195403 | 57 | 0 | 0.0 | 0.0 | 0.00 | 0.01 | 0.00 | 77 | 1013.8 |
| 20260901194505 | 57 | 0 | 0.0 | 0.0 | 0.00 | 0.01 | 0.00 | 77 | 1013.7 |
| 20260901193814 | 57 | 0 | 0.0 | 0.0 | 0.00 | 0.01 | 0.00 | 77 | 1013.6 |
| 20260901192705 | 57 | 0 | 0.0 | 0.0 | 0.00 | 0.01 | 0.00 | 76 | 1013.5 |
| 20260901191805 | 58 | 0 | 0.0 | 0.0 | 0.00 | 0.01 | 0.00 | 76 | 1013.5 |
| 20260901190905 | 58 | 0 | 0.0 | 0.0 | 0.00 | 0.01 | 0.00 | 75 | 1013.4 |
| 20260901190003 | 58 | 0 | 0.0 | 0.0 | 0.00 | 0.01 | 0.00 | 77 | 1013.2 |
| 20260901185403 | 59 | 0 | 0.0 | 0.0 | 0.00 | 0.01 | 0.00 | 77 | 1013.2 |
| 20260901184714 | 59 | 0 | 0.0 | 0.0 | 0.00 | 0.01 | 0.00 | 76 | 1013.2 |
| 20260901183604 | 60 | 0 | 0.0 | 0.0 | 0.00 | 0.01 | 0.00 | 75 | 1012.9 |
| 20260901182703 | 61 | 0 | 0.0 | 0.0 | 0.00 | 0.01 | 0.00 | 75 | 1012.8 |
| 20260901182014 | 61 | 0 | 0.0 | 0.0 | 0.00 | 0.01 | 0.00 | 74 | 1012.6 |
| 20260901181114 | 61 | 0 | 0.0 | 0.0 | 0.00 | 0.01 | 0.00 | 74 | 1012.3 |
| 20260901180003 | 61 | 0 | 0.0 | 0.0 | 0.00 | 0.01 | 0.00 | 74 | 1012.1 |
| 20260901175405 | 61 | 0 | 0.0 | 0.0 | 0.00 | 0.01 | 0.00 | 74 | 1012.0 |
| 20260901174503 | 61 | 0 | 0.0 | 0.0 | 0.00 | 0.01 | 0.00 | 74 | 1012.1 |
| 20260901173605 | 61 | 0 | 0.0 | 0.0 | 0.00 | 0.01 | 0.00 | 73 | 1012.1 |
| 20260901172912 | 61 | 0 | 0.0 | 0.0 | 0.00 | 0.01 | 0.00 | 73 | 1012.1 |
| 20260901171803 | 61 | 0 | 0.0 | 0.0 | 0.00 | 0.01 | 0.00 | 72 | 1012.1 |
| 20260901170905 | 61 | 0 | 0.0 | 0.0 | 0.00 | 0.01 | 0.00 | 72 | 1012.1 |
| 20260901170005 | 62 | 0 | 0.0 | 0.0 | 0.00 | 0.01 | 0.00 | 72 | 1012.0 |
| 20260901165614 | 61 | 0 | 0.0 | 0.0 | 0.00 | 0.01 | 0.00 | 72 | 1012.0 |
| 20260901164503 | 62 | 0 | 0.0 | 0.0 | 0.00 | 0.01 | 0.00 | 72 | 1012.2 |
| 20260901163603 | 61 | 0 | 0.0 | 0.0 | 0.00 | 0.01 | 0.00 | 72 | 1012.4 |
| 20260901162704 | 61 | 0 | 0.0 | 0.0 | 0.00 | 0.01 | 0.00 | 72 | 1012.5 |
| 20260901162016 | 61 | 0 | 0.0 | 0.0 | 0.00 | 0.01 | 0.00 | 72 | 1012.4 |
| 20260901160905 | 62 | 0 | 0.0 | 0.0 | 0.00 | 0.01 | 0.00 | 72 | 1012.5 |
| 20260901160005 | 62 | 0 | 0.0 | 0.0 | 0.00 | 0.01 | 0.00 | 72 | 1012.6 |
| 20260901155616 | 61 | 0 | 0.0 | 0.0 | 0.00 | 0.01 | 0.00 | 72 | 1012.6 |
| 20260901154504 | 61 | 0 | 0.0 | 0.0 | 0.00 | 0.01 | 0.00 | 71 | 1012.7 |
| 20260901153815 | 61 | 0 | 0.0 | 0.0 | 0.00 | 0.01 | 0.00 | 71 | 1012.6 |
| 20260901152703 | 62 | 0 | 0.0 | 0.0 | 0.00 | 0.01 | 0.00 | 71 | 1012.5 |
| 20260901151805 | 62 | 0 | 0.0 | 0.0 | 0.00 | 0.01 | 0.00 | 70 | 1012.5 |
| 20260901151115 | 62 | 0 | 0.0 | 0.0 | 0.00 | 0.01 | 0.00 | 70 | 1012.5 |
| 20260901150004 | 62 | 0 | 0.0 | 0.0 | 0.00 | 0.01 | 0.00 | 70 | 1012.6 |
| 20260901145403 | 62 | 0 | 0.0 | 0.0 | 0.00 | 0.01 | 0.00 | 70 | 1012.6 |
| 20260901144504 | 62 | 0 | 0.0 | 0.0 | 0.00 | 0.01 | 0.00 | 69 | 1012.6 |
| 20260901143604 | 62 | 0 | 0.0 | 0.0 | 0.00 | 0.01 | 0.00 | 69 | 1012.5 |
| 20260901142703 | 62 | 0 | 0.0 | 0.0 | 0.00 | 0.01 | 0.00 | 69 | 1012.4 |
| 20260901141805 | 62 | 0 | 0.0 | 0.0 | 0.00 | 0.01 | 0.00 | 69 | 1012.4 |
| 20260901140905 | 62 | 0 | 0.0 | 0.0 | 0.00 | 0.01 | 0.00 | 69 | 1012.4 |
| 20260901140004 | 62 | 0 | 0.0 | 0.0 | 0.00 | 0.01 | 0.00 | 69 | 1012.5 |
| 20260901135405 | 63 | 0 | 0.0 | 0.0 | 0.00 | 0.01 | 0.01 | 69 | 1012.5 |
| 20260901134508 | 63 | 0 | 0.0 | 0.0 | 0.00 | 0.01 | 0.01 | 68 | 1012.5 |
| 20260901133603 | 63 | 0 | 0.0 | 0.0 | 0.00 | 0.01 | 0.01 | 68 | 1012.6 |
| 20260901132915 | 64 | 0 | 0.0 | 0.0 | 0.00 | 0.01 | 0.01 | 67 | 1012.6 |
| 20260901131808 | 64 | 0 | 0.0 | 0.0 | 0.00 | 0.01 | 0.01 | 64 | 1012.5 |
| 20260901130905 | 64 | 0 | 0.0 | 0.0 | 0.00 | 0.01 | 0.01 | 63 | 1012.6 |
| 20260901130213 | 64 | 0 | 0.0 | 0.0 | 0.00 | 0.01 | 0.01 | 62 | 1012.8 |